• In Netherlands
  • List of Countries
  • For 7 days
  • Water Temperature
  • Satellite Maps
  • Weather Map
  • Weather Widgets
  • user-avatar
    Login

    Hourly Weather Kranevo

    Today, 30 April, Sunday

    Time Temperature Precipitation Wind Pressure Humidity
    00:00 +13°C° 0 mm 2 mps 754 mmHg 67%
    01:00 +13°C° 0 mm 2 mps 754 mmHg 69%
    02:00 +12°C° 0 mm 2 mps 754 mmHg 70%
    03:00 +12°C° 0 mm 2 mps 754 mmHg 73%
    04:00 +11°C° 0 mm 1 mps 754 mmHg 76%
    05:00 +11°C° 0 mm 1 mps 754 mmHg 79%
    06:00 +13°C° 0 mm 1 mps 754 mmHg 74%
    07:00 +15°C° 0 mm 2 mps 755 mmHg 70%
    08:00 +17°C° 0 mm 2 mps 755 mmHg 65%
    09:00 +18°C° 0 mm 2 mps 755 mmHg 64%
    10:00 +19°C° 0 mm 2 mps 755 mmHg 63%
    11:00 +20°C° 0 mm 3 mps 756 mmHg 62%
    12:00 +20°C° 0 mm 3 mps 755 mmHg 62%
    13:00 +20°C° 0 mm 3 mps 755 mmHg 61%
    14:00 +21°C° 0 mm 4 mps 755 mmHg 60%
    15:00 +20°C° 0 mm 4 mps 755 mmHg 61%
    16:00 +20°C° 0 mm 4 mps 755 mmHg 63%
    17:00 +19°C° 0 mm 4 mps 755 mmHg 64%
    18:00 +17°C° 0 mm 4 mps 755 mmHg 68%
    19:00 +14°C° 0 mm 3 mps 755 mmHg 71%
    20:00 +12°C° 0 mm 3 mps 755 mmHg 75%
    21:00 +12°C° 0 mm 3 mps 755 mmHg 74%
    22:00 +11°C° 0 mm 3 mps 756 mmHg 74%
    23:00 +10°C° 0 mm 3 mps 756 mmHg 73%

    Tomorrow, 1 May, Monday

    Time Temperature Precipitation Wind Pressure Humidity
    00:00 +10°C° 0 mm 3 mps 756 mmHg 73%
    01:00 +9°C° 0 mm 3 mps 756 mmHg 74%
    02:00 +8°C° 0 mm 4 mps 756 mmHg 74%
    03:00 +8°C° 0 mm 4 mps 756 mmHg 76%
    04:00 +8°C° 0 mm 4 mps 756 mmHg 79%
    05:00 +8°C° 0 mm 4 mps 756 mmHg 81%
    06:00 +10°C° 0 mm 4 mps 756 mmHg 80%
    07:00 +12°C° 0 mm 5 mps 756 mmHg 80%
    08:00 +14°C° 0 mm 5 mps 757 mmHg 79%
    09:00 +15°C° 0 mm 5 mps 757 mmHg 73%
    10:00 +17°C° 0 mm 5 mps 757 mmHg 66%
    11:00 +20°C° 0 mm 5 mps 757 mmHg 59%
    12:00 +21°C° 0 mm 5 mps 757 mmHg 57%
    13:00 +21°C° 0 mm 5 mps 757 mmHg 54%
    14:00 +22°C° 0 mm 5 mps 756 mmHg 51%
    15:00 +22°C° 0 mm 5 mps 756 mmHg 54%
    16:00 +21°C° 0 mm 5 mps 756 mmHg 56%
    17:00 +21°C° 0 mm 4 mps 756 mmHg 59%
    18:00 +18°C° 0 mm 4 mps 756 mmHg 68%
    19:00 +16°C° 0 mm 3 mps 757 mmHg 77%
    20:00 +12°C° 0 mm 3 mps 757 mmHg 86%
    21:00 +11°C° 0 mm 3 mps 757 mmHg 86%
    22:00 +12°C° 0 mm 2 mps 757 mmHg 86%
    23:00 +10°C° 0 mm 2 mps 757 mmHg 87%

    Day after tomorrow, 2 May, Tuesday

    Time Temperature Precipitation Wind Pressure Humidity
    00:00 +10°C° 0 mm 2 mps 757 mmHg 86%
    01:00 +9°C° 0 mm 2 mps 757 mmHg 85%
    02:00 +9°C° 0 mm 2 mps 757 mmHg 84%
    03:00 +9°C° 0 mm 3 mps 757 mmHg 84%
    04:00 +9°C° 0 mm 3 mps 757 mmHg 83%
    05:00 +9°C° 0 mm 3 mps 757 mmHg 83%
    06:00 +12°C° 0 mm 3 mps 758 mmHg 75%
    07:00 +14°C° 0 mm 3 mps 758 mmHg 68%
    08:00 +17°C° 0 mm 3 mps 758 mmHg 61%
    09:00 +19°C° 0 mm 3 mps 758 mmHg 57%
    10:00 +21°C° 0 mm 3 mps 758 mmHg 53%
    11:00 +22°C° 0 mm 4 mps 759 mmHg 50%
    12:00 +23°C° 0 mm 4 mps 758 mmHg 49%
    13:00 +23°C° 0 mm 4 mps 758 mmHg 48%
    14:00 +23°C° 0 mm 4 mps 758 mmHg 48%
    15:00 +23°C° 0 mm 4 mps 758 mmHg 51%
    16:00 +22°C° 0 mm 4 mps 758 mmHg 54%
    17:00 +21°C° 0 mm 4 mps 758 mmHg 58%
    18:00 +19°C° 0 mm 3 mps 758 mmHg 66%
    19:00 +16°C° 0 mm 3 mps 758 mmHg 75%
    20:00 +14°C° 0 mm 2 mps 758 mmHg 84%
    21:00 +13°C° 0 mm 2 mps 758 mmHg 85%
    22:00 +12°C° 0 mm 2 mps 759 mmHg 85%
    23:00 +11°C° 0 mm 1 mps 759 mmHg 86%

    3 May, Wednesday

    Time Temperature Precipitation Wind Pressure Humidity
    00:00 +11°C° 0 mm 1 mps 759 mmHg 86%
    01:00 +10°C° 0 mm 1 mps 758 mmHg 85%
    02:00 +10°C° 0 mm 1 mps 758 mmHg 85%
    03:00 +9°C° 0 mm 2 mps 758 mmHg 84%
    04:00 +9°C° 0 mm 2 mps 758 mmHg 83%
    05:00 +10°C° 0 mm 2 mps 758 mmHg 82%
    06:00 +13°C° 0 mm 2 mps 758 mmHg 75%
    07:00 +16°C° 0 mm 2 mps 759 mmHg 69%
    08:00 +19°C° 0 mm 2 mps 759 mmHg 62%
    09:00 +20°C° 0 mm 3 mps 759 mmHg 59%
    10:00 +22°C° 0 mm 3 mps 759 mmHg 57%
    11:00 +23°C° 0 mm 4 mps 759 mmHg 54%
    12:00 +23°C° 0 mm 4 mps 759 mmHg 54%
    13:00 +23°C° 0 mm 4 mps 758 mmHg 54%
    14:00 +25°C° 0 mm 5 mps 758 mmHg 54%
    15:00 +23°C° 0 mm 5 mps 758 mmHg 57%
    16:00 +22°C° 0 mm 5 mps 758 mmHg 61%
    17:00 +21°C° 0 mm 5 mps 758 mmHg 65%
    18:00 +18°C° 0 mm 4 mps 758 mmHg 73%
    19:00 +16°C° 0 mm 3 mps 758 mmHg 81%
    20:00 +13°C° 0 mm 3 mps 758 mmHg 90%
    21:00 +12°C° 0 mm 3 mps 758 mmHg 90%
    22:00 +12°C° 0 mm 2 mps 758 mmHg 90%
    23:00 +12°C° 0 mm 2 mps 758 mmHg 90%

    4 May, Thursday

    Time Temperature Precipitation Wind Pressure Humidity
    00:00 +10°C° 0 mm 2 mps 758 mmHg 90%
    01:00 +10°C° 0 mm 2 mps 758 mmHg 89%
    02:00 +11°C° 0 mm 1 mps 757 mmHg 89%
    03:00 +10°C° 0 mm 2 mps 757 mmHg 88%
    04:00 +10°C° 0 mm 2 mps 757 mmHg 87%
    05:00 +10°C° 0 mm 2 mps 757 mmHg 86%
    06:00 +13°C° 0 mm 2 mps 757 mmHg 79%
    07:00 +16°C° 0 mm 2 mps 757 mmHg 72%
    08:00 +18°C° 0 mm 3 mps 757 mmHg 66%
    09:00 +19°C° 0 mm 3 mps 757 mmHg 62%
    10:00 +21°C° 0 mm 3 mps 757 mmHg 58%
    11:00 +22°C° 0 mm 3 mps 757 mmHg 54%
    12:00 +22°C° 0 mm 3 mps 757 mmHg 54%
    13:00 +24°C° 0 mm 3 mps 757 mmHg 54%
    14:00 +23°C° 0 mm 4 mps 757 mmHg 54%
    15:00 +22°C° 0 mm 4 mps 756 mmHg 58%
    16:00 +21°C° 0 mm 4 mps 756 mmHg 62%
    17:00 +20°C° 0 mm 4 mps 756 mmHg 66%
    18:00 +18°C° 0 mm 3 mps 756 mmHg 74%
    19:00 +16°C° 0 mm 3 mps 756 mmHg 82%
    20:00 +12°C° 0 mm 3 mps 756 mmHg 90%
    21:00 +13°C° 0 mm 2 mps 756 mmHg 90%
    22:00 +12°C° 0 mm 2 mps 756 mmHg 91%
    23:00 +12°C° 0 mm 2 mps 756 mmHg 91%

    5 May, Friday

    Time Temperature Precipitation Wind Pressure Humidity
    00:00 +10°C° 0 mm 2 mps 756 mmHg 91%
    01:00 +11°C° 0 mm 1 mps 756 mmHg 91%
    02:00 +11°C° 0 mm 1 mps 756 mmHg 91%
    03:00 +11°C° 0 mm 1 mps 756 mmHg 90%
    04:00 +10°C° 0 mm 2 mps 756 mmHg 90%
    05:00 +10°C° 0 mm 2 mps 756 mmHg 89%
    06:00 +13°C° 0 mm 2 mps 755 mmHg 83%
    07:00 +15°C° 0 mm 2 mps 755 mmHg 77%
    08:00 +18°C° 0 mm 2 mps 755 mmHg 71%
    09:00 +19°C° 0 mm 3 mps 755 mmHg 67%
    10:00 +20°C° 0 mm 3 mps 755 mmHg 63%
    11:00 +21°C° 0 mm 3 mps 755 mmHg 59%
    12:00 +21°C° 0 mm 4 mps 754 mmHg 59%
    13:00 +22°C° 0 mm 4 mps 754 mmHg 59%
    14:00 +22°C° 0 mm 4 mps 753 mmHg 59%
    15:00 +21°C° 0 mm 4 mps 753 mmHg 63%
    16:00 +20°C° 0 mm 4 mps 753 mmHg 66%
    17:00 +19°C° 0 mm 4 mps 752 mmHg 70%
    18:00 +17°C° 0 mm 4 mps 752 mmHg 77%
    19:00 +14°C° 0 mm 3 mps 752 mmHg 85%
    20:00 +13°C° 0 mm 2 mps 752 mmHg 93%
    21:00 +12°C° 0.2 mm 2 mps 752 mmHg 94%
    22:00 +10°C° 0.2 mm 2 mps 752 mmHg 95%
    23:00 +11°C° 0.2 mm 1 mps 752 mmHg 95%
    Show more